Regional Weather Roundup
Issued by NWS

Home | Current Version | Previous Version | Graphics & Text | Print | Product List | Glossary On
Versions: 1 2 3 4 5 6 7 8 9 10 11 12 13 14 15 16 17 18 19 20 21 22 23 24 25 26 27 28 29 30 31 32 33 34 35 36 37 38 39 40 41 42 43 44 45 46 47 48 49 50
596
ASUS43 KFSD 221402
RWRSD

WEATHER ROUNDUP FOR SOUTH DAKOTA
NATIONAL WEATHER SERVICE SIOUX FALLS SD
800 AM CST WED FEB 22 2017

NOTE: "FAIR" INDICATES FEW OR NO CLOUDS BELOW 12,000 FEET WITH NO
SIGNIFICANT WEATHER AND/OR OBSTRUCTIONS TO VISIBILITY.


SDZ001>005-009-010-012>017-221500-
NORTHWEST AND NORTH CENTRAL SOUTH DAKOTA

CITY           SKY/WX    TMP DP  RH WIND       PRES   REMARKS
BUFFALO          N/A     34  31  88 NW13      29.64R WCI  25
FAITH            N/A     34  34 100 NW8       29.70R WCI  27
MOBRIDGE       CLOUDY    38  33  82 N13G20    29.65R
$$

SDZ012>016-024>037-041>051-057-063-072>074-221500-
SOUTHWEST AND SOUTH CENTRAL SOUTH DAKOTA

CITY           SKY/WX    TMP DP  RH WIND       PRES   REMARKS
RAPID CTY ARPT CLOUDY    45  29  53 W18       29.71R
PIERRE         CLOUDY    46  36  68 W13       29.64S
CUSTER         CLOUDY    34  22  61 W8        29.77R WCI  27
ELLSWORTH AFB  CLOUDY    45  29  53 W15       29.72R
PHILIP         PTCLDY    43  36  76 NW10      29.71R
PINE RIDGE     MOCLDY    42  33  70 W3        29.78R
SPEARFISH      CLOUDY    45  25  45 W13G20    29.76R
WINNER         FAIR      49  38  65 W12       29.68S
$$

SDZ004>011-016>023-039-040-221500-
NORTHEAST SOUTH DAKOTA

CITY           SKY/WX    TMP DP  RH WIND       PRES   REMARKS
ABERDEEN       MOCLDY    35  32  88 N12       29.64R WCI  27
WATERTOWN      FAIR      41  38  89 N7        29.61R
BROOKINGS      MOCLDY    43  38  82 SE7       29.56F
SISSETON         N/A     35  35 100 N9        29.62F WCI  28
$$

SDZ017-020-022-023-036>040-048>070-221500-
SOUTHEAST SOUTH DAKOTA

CITY           SKY/WX    TMP DP  RH WIND       PRES   REMARKS
SIOUX FALLS    FAIR      45  38  76 W9        29.62R
HURON          CLOUDY    42  39  89 CALM      29.62R
CHAMBERLAIN    PTCLDY    43  39  84 W9        29.67R
MITCHELL       MOCLDY    46  39  76 SW8       29.60F
YANKTON        FAIR      43  34  70 SW7       29.64S
$$

ABBREVIATIONS USED IN REMARKS
   TC - TEMPERATURE IN CELSIUS
  WCI - WIND CHILL INDEX
   HX - HEAT INDEX
  VSB - VISIBILITY





USA.gov is the U.S. government's official web portal to all federal, state and local government web resources and services.